     2              OBSERVATION DATA    GPS                 RINEX VERSION / TYPE
teqc 2000Feb29 20020409 20:45:20UTC                         PGM / RUN BY / DATE
                                                            COMMENT
L2: 1 -> 1; 150 -> 5; 250 -> 9                              COMMENT
L2: 1 -> 1; 150 -> 5; 250 -> 9                              COMMENT
L2: 1 -> 1; 150 -> 5; 250 -> 9                              COMMENT
L2: 1 -> 1; 150 -> 5; 250 -> 9                              COMMENT
L2: 1 -> 1; 150 -> 5; 250 -> 9                              COMMENT
Original Marker Name: LE06                                  COMMENT
Campaign Name: Northern Baja                                COMMENT
4-Character Station Name: LEV6                              COMMENT
6-Character Antenna Code: DMRCHT                            COMMENT
Vertical Measurement Point: BCR                             COMMENT
Vertical Offset to Rinex Ref. Point: 0.0348                 COMMENT
Radial Measurement Point: ECF                               COMMENT
Radial Offset to Rinex Ref. Point: 0.1897                   COMMENT
Antenna Height from Field Measurement: 0.9539 m             COMMENT
Additional Antenna Identification Info.:                    COMMENT
Turborogue and Ashtech Choke Ring                           COMMENT
Original XYZ: -2293205.8547 -4863200.4330 3419396.2061      COMMENT
New XYZ position is based on association with SCEC monument COMMENT
E1C9D2N3+0011. Position of that monument is believed to be  COMMENT
valid to within 1 m horizontally; vertical accuracy         COMMENT
should be no worse than 3-times this value.                 COMMENT
                                                            COMMENT
Revised Rinex header created by UCSD GPS archive for        COMMENT
GSAC on 27-Jun-2003 (2003:178) 15:46:45 GMT                 COMMENT
For assistance contact dagnew@ucsd.edu                      COMMENT
or anderson@python.ucsd.edu                                 COMMENT
                                                            COMMENT
EVAPORACION 06                                              MARKER NAME
JGG CICESE (ENSENADA)                                       OBSERVER / AGENCY
319 ASHTECH Z-XII3 CC00                                     REC # / TYPE / VERS
738 DORNE-MARGOL. TYPE T                                    ANT # / TYPE
 -2301773.2662 -4874926.7067  3396985.2992                  APPROX POSITION XYZ
        0.9000        0.0000        0.0000                  ANTENNA: DELTA H/E/N
     1     1     0                                          WAVELENGTH FACT L1/2
     7    C1    L1    L2    P1    P2    S1    S2            # / TYPES OF OBSERV
     0                                                      INTERVAL
  2002     2    13    23    11   30.000000                  TIME OF FIRST OBS
  2002     2    13    23    59   30.000000                  TIME OF LAST OBS
                                                            END OF HEADER
 02  2 13 23 11 30.0000000  0  6G30G24G23G 5G 6G10
  20684928.071      -51420.67249    -36468.98647  20684928.382    20684937.153
       245.000         210.000
  22565897.658      229214.00049    163570.74146  22565898.154    22565909.282
       230.000         184.000
  23568003.414     -281038.33749   -202300.84245  23568002.981    23568019.586
       216.000         154.000
  20887704.195      152852.92249    110308.76148  20887703.834    20887713.480
       245.000         213.000
  22603760.207     -174093.50049   -124835.24946  22603760.142    22603772.037
       229.000         182.000
  21009162.281      -77025.88649    -55825.92147  21009161.720    21009171.936
       241.000         206.000
 02  2 13 23 11 59.9990000  0  7G30G24G23G 5G17G 6G10
  20382018.433      -67801.30249    -49233.08047  20382019.012    20382027.418
       245.000         211.000
  22281078.348      307896.20549    224881.45546  22281077.841    22281090.322
       229.000         184.000
  23249808.091     -377747.33149   -277658.16945  23249806.834    23249823.679
       216.000         157.000
  20597469.128      203076.57549    149444.03548  20597468.969    20597478.327
       244.000         213.000
  24431331.300     -303530.14549   -220626.98945  24431330.942    24431349.440
       206.000         139.000
  22292604.540     -233808.65049   -171366.40446  22292603.841    22292616.057
       229.000         183.000
  20704867.953     -100682.79549    -74259.82247  20704867.489    20704877.819
       240.000         207.000
 02  2 13 23 12 30.0000000  0  7G30G24G23G 5G17G 6G10
  20463333.754    -1215907.15249   -943860.97547  20463334.298    20463342.749
       246.000         211.000
  22380392.539     -745624.51849   -596043.86846  22380392.307    22380404.919
       231.000         183.000
  23315754.788    -1606613.01849  -1235215.52145  23315753.889    23315770.445
       216.000         157.000
  20691447.137     -878486.51749   -693332.42948  20691446.650    20691456.256
       246.000         213.000
  24501078.441    -1512425.79549  -1162623.23145  24501078.616    24501098.245
       204.000         141.000
  22365574.416    -1425768.70849  -1100166.30246  22365573.805    22365585.755
       231.000         184.000
  20784805.513    -1256028.90849   -974529.45347  20784804.779    20784815.174
       242.000         207.000
 02  2 13 23 13  0.0000000  0  7G30G24G23G 5G17G 6G10
  20459551.982    -1235780.72449   -959346.84847  20459552.417    20459561.178
       247.000         211.000
  22394517.403     -671397.62049   -538204.82246  22394517.118    22394529.689
       231.000         183.000
  23296523.652    -1707672.14949  -1313962.58045  23296522.413    23296538.844
       217.000         157.000
  20700315.296     -831884.10649   -657018.90847  20700314.810    20700324.328
       245.000         212.000
  24485651.638    -1593493.07349  -1225792.19245  24485650.577    24485670.464
       207.000         142.000
  22353348.862    -1490013.97249  -1150227.41246  22353348.689    22353360.537
       231.000         184.000
  20779652.938    -1283106.01649   -995628.44947  20779652.216    20779662.111
       242.000         207.000
 02  2 13 23 13 30.0000000  0  7G30G24G23G 5G17G 6G10
  20455878.766    -1255083.50949   -974387.93847  20455878.970    20455887.777
       246.000         211.000
  22408658.633     -597085.08149   -480299.03246  22408658.029    22408670.775
       231.000         183.000
  23277320.109    -1808586.46849  -1392596.79145  23277318.877    23277335.972
       217.000         158.000
  20709279.172     -784778.50949   -620313.28047  20709278.515    20709288.462
       245.000         212.000
  24470256.338    -1674395.40149  -1288832.64745  24470255.035    24470275.442
       207.000         142.000
  22341133.196    -1554207.40649  -1200248.13546  22341132.686    22341144.318
       231.000         185.000
  20774615.990    -1309575.48349  -1016253.94747  20774615.103    20774625.225
       242.000         207.000
 02  2 13 23 14  0.0000000  0  7G30G24G23G 5G17G 6G10
  20452314.417    -1273814.14949   -988983.21747  20452315.007    20452323.486
       247.000         211.000
  22422815.936     -522688.30949   -422327.62546  22422815.938    22422828.001
       231.000         183.000
  23258144.775    -1909353.02249  -1471115.87645  23258144.302    23258160.562
       218.000         159.000
  20718338.669     -737170.58949   -583216.24648  20718338.363    20718348.282
       245.000         213.000
  24454892.502    -1755131.99249  -1351743.96445  24454891.931    24454910.782
       205.000         143.000
  22328927.631    -1618347.75349  -1250227.50446  22328927.565    22328939.445
       232.000         186.000
  20769694.869    -1335436.19149  -1036405.09747  20769694.100    20769704.130
       242.000         207.000
 02  2 13 23 14 30.0000000  0  7G30G24G23G 5G17G 6G10
  20448859.118    -1291972.13549  -1003132.26047  20448859.239    20448868.239
       248.000         211.000
  22436988.916     -448209.15149   -364292.01046  22436988.356    22437000.879
       232.000         183.000
  23238998.001    -2009969.41749  -1549517.94945  23238996.677    23239013.595
       221.000         161.000
  20727493.436     -689062.27549   -545729.28348  20727492.885    20727502.857
       246.000         213.000
  24439560.187    -1835702.61749  -1414525.94745  24439558.746    24439578.638
       207.000         143.000
  22316732.223    -1682434.75649  -1300165.29046  22316731.708    22316743.468
       233.000         186.000
  20764889.667    -1360687.64649  -1056081.49047  20764888.547    20764898.729
       243.000         207.000
 02  2 13 23 15  0.0000000  0  7G30G24G23G 5G17G 6G10
  20445513.439    -1309554.04849  -1016832.42947  20445513.885    20445522.574
       246.000         212.000
  22451177.685     -373647.12049   -306191.82746  22451177.743    22451189.895
       231.000         183.000
  23219880.760    -2110430.59849  -1627799.07445  23219879.932    23219896.259
       219.000         162.000
  20736743.620     -640452.48149   -507851.56948  20736743.521    20736753.109
       245.000         213.000
  24424260.095    -1916104.28249  -1477176.29045  24424259.137    24424279.175
       208.000         144.000
  22304547.572    -1746465.20549  -1350059.02146  22304547.303    22304558.707
       232.000         187.000
  20760201.091    -1385326.09749  -1075280.23447  20760200.512    20760210.415
       242.000         207.000
 02  2 13 23 15 30.0000000  0  7G30G24G23G 5G17G 6G10
  20442277.155    -1326560.67649  -1030084.31447  20442277.416    20442286.171
       246.000         212.000
  22465381.599     -299005.36749   -248029.51646  22465381.400    22465393.935
       230.000         183.000
  23200793.261    -2210735.32449  -1705958.29545  23200792.116    23200808.129
       218.000         162.000
  20746088.657     -591344.27049   -469585.46747  20746088.232    20746097.794
       245.000         212.000
  24408991.984    -1996338.14249  -1539695.86945  24408990.438    24409010.570
       209.000         145.000
  22292373.549    -1810439.81949  -1399909.24046  22292373.331    22292385.041
       232.000         187.000
  20755629.073    -1409352.15949  -1094001.77847  20755628.228    20755638.343
       242.000         207.000
 02  2 13 23 16  0.0000000  0  7G30G24G23G 5G17G 6G10
  20439150.506    -1342991.27749  -1042887.35647  20439151.060    20439159.688
       247.000         212.000
  22479600.348     -224285.71849   -189806.51546  22479600.347    22479613.068
       231.000         183.000
  23181735.889    -2310881.23949  -1783993.74945  23181734.729    23181750.672
       217.000         161.000
  20755528.235     -541739.34649   -430932.32347  20755527.917    20755537.557
       246.000         212.000
  24393755.768    -2076403.93749  -1602084.47445  24393754.565    24393774.478
       208.000         145.000
  22280210.246    -1874358.12249  -1449715.59447  22280210.151    22280221.729
       232.000         188.000
  20751173.717    -1432765.25549  -1112245.69547  20751172.982    20751183.219
       242.000         207.000
 02  2 13 23 16 30.0000000  0  7G30G24G23G 5G17G 6G10
  20436133.831    -1358844.29749  -1055240.33447  20436134.069    20436142.736
       246.000         212.000
  22493833.743     -149489.22049   -131523.62746  22493833.953    22493846.484
       230.000         183.000
  23162709.442    -2410864.63949  -1861902.56645  23162708.041    23162724.827
       217.000         160.000
  20765062.265     -491638.08649   -391892.42847  20765061.887    20765071.532
       245.000         212.000
  24378551.847    -2156300.05249  -1664340.85445  24378551.070    24378570.287
       210.000         145.000
  22268057.989    -1938218.27349  -1499476.62447  22268057.764    22268069.309
       231.000         188.000
  20746835.337    -1455563.64649  -1130010.62147  20746834.445    20746844.593
       241.000         207.000
 02  2 13 23 17  0.0000000  0  7G30G24G23G 5G17G 6G10
  20433227.201    -1374118.60949  -1067142.36847  20433227.551    20433236.279
       247.000         211.000
  22508081.512      -74617.41049    -73182.05746  22508082.009    22508094.084
       232.000         182.000
  23143714.495    -2510682.50649  -1939682.42045  23143713.700    23143729.479
       217.000         159.000
  20774690.436     -441041.88249   -352466.85647  20774689.841    20774699.968
       245.000         212.000
  24363380.319    -2236025.86249  -1726464.53745  24363379.114    24363397.676
       212.000         143.000
  22255916.965    -2002019.31049  -1549191.58447  22255916.739    22255928.230
       232.000         188.000
  20742614.045    -1477746.35549  -1147295.78647  20742612.978    20742623.393
       242.000         207.000
 02  2 13 23 17 30.0000000  0  7G30G24G23G 5G17G 6G10
  20430430.751    -1388813.95949  -1078593.26847  20430431.087    20430439.905
       245.000         211.000
  22522343.252         327.89249    -14783.21846  22522343.136    22522355.657
       229.000         182.000
  23124751.456    -2610332.87749  -2017331.74945  23124750.748    23124765.810
       217.000         160.000
  20784412.318     -389952.99949   -312657.38647  20784411.901    20784421.730
       244.000         212.000
  24348241.211    -2315581.60349  -1788455.69445  24348239.744    24348258.877
       209.000         143.000
  22243787.249    -2065761.01249  -1598860.32547  22243786.747    22243798.735
       231.000         188.000
  20738509.992    -1499313.19049  -1164101.06147  20738509.119    20738519.234
       240.000         207.000
 02  2 13 23 18  0.0000000  0  7G30G24G23G 5G17G 6G10
  20427744.507    -1402930.20349  -1089592.90947  20427745.246    20427753.788
       248.000         212.000
  22536618.503       75344.19549     43670.95146  22536619.073    22536631.233
       232.000         183.000
  23105820.751    -2709813.51449  -2094848.80745  23105819.874    23105834.895
       219.000         161.000
  20794227.681     -338373.16549   -272465.35347  20794227.646    20794237.191
       246.000         212.000
  24333134.381    -2394967.11749  -1850314.20645  24333132.903    24333152.052
       203.000         140.000
  22231668.918    -2129442.92849  -1648482.46047  22231668.446    22231680.301
       232.000         188.000
  20734523.262    -1520263.61349  -1180426.01047  20734522.659    20734532.695
       243.000         208.000
 02  2 13 23 18 30.0000000  0  7G30G24G23G 5G17G 6G10
  20425168.946    -1416465.20949  -1100139.63847  20425169.340    20425178.125
       248.000         212.000
  22550907.256      150431.32749    102180.30946  22550907.661    22550919.346
       232.000         183.000
  23086923.071    -2809120.36149  -2172230.44046  23086921.167    23086937.459
       221.000         163.000
  20804136.469     -286302.86149   -231891.13247  20804136.416    20804145.888
       247.000         212.000
  24318060.319    -2474180.87849  -1912038.87345  24318059.158    24318077.926
       209.000         137.000
  22219562.338    -2193062.84849  -1698056.28647  22219561.867    22219574.115
       232.000         188.000
  20730654.273    -1540595.28649  -1196268.82047  20730653.387    20730663.358
       243.000         208.000
 02  2 13 23 19  0.0000000  0  7G30G24G23G 5G17G 6G10
  20422703.861    -1429419.29049  -1110233.69847  20422704.026    20422712.809
       247.000         212.000
  22565208.988      225586.58949    160742.75146  22565209.261    22565221.419
       231.000         182.000
  23068058.786    -2908251.76849  -2249475.35746  23068057.146    23068072.977
       220.000         164.000
  20814138.037     -233744.72749   -190936.78747  20814137.612    20814147.347
       247.000         212.000
  24303018.759    -2553223.32749  -1973630.05245  24303017.761    24303036.311
       208.000         143.000
  22207467.516    -2256621.01549  -1747582.01347  22207466.771    22207478.901
       231.000         188.000
  20726902.923    -1560308.69549  -1211629.86847  20726902.264    20726912.106
       243.000         208.000
 02  2 13 23 19 30.0000000  0  7G30G24G23G 5G17G 6G10
  20420349.680    -1441790.71049  -1119873.73347  20420349.876    20420358.618
       246.000         212.000
  22579523.503      300809.21649    219357.69546  22579523.841    22579536.000
       230.000         182.000
  23049228.527    -3007204.17149  -2326580.78846  23049227.692    23049242.195
       220.000         165.000
  20824232.335     -180699.29949   -149602.73047  20824232.314    20824241.635
       245.000         212.000
  24288010.174    -2632093.07049  -2035086.63245  24288008.951    24288027.699
       208.000         144.000
  22195384.775    -2320115.73049  -1797058.28347  22195384.175    22195396.031
       231.000         188.000
  20723269.602    -1579402.16949  -1226507.85347  20723268.899    20723278.874
       242.000         209.000
 02  2 13 23 20  0.0000000  0  7G30G24G23G 5G17G 6G10
  20418106.499    -1453578.75349  -1129059.19047  20418106.859    20418115.227
       246.000         212.000
  22593850.535      376097.71749    278023.95946  22593850.653    22593862.847
       229.000         181.000
  23030432.916    -3105974.48049  -2403544.32246  23030431.964    23030447.238
       222.000         167.000
  20834419.095     -127168.01249   -107890.08447  20834418.902    20834428.467
       245.000         212.000
  24273034.432    -2710789.39549  -2096408.09345  24273033.269    24273052.528
       210.000         145.000
  22183314.384    -2383545.64049  -1846484.05547  22183314.231    22183325.586
       231.000         188.000
  20719754.380    -1597874.81149  -1240902.07447  20719753.623    20719763.478
       242.000         209.000
 02  2 13 23 20 30.0000000  0  7G30G24G23G 5G17G 6G10
  20415974.270    -1464783.54149  -1137790.16447  20415974.645    20415983.248
       247.000         212.000
  22608189.632      451449.70849    336739.69246  22608189.996    22608202.511
       230.000         181.000
  23011672.288    -3204561.11049  -2480364.72946  23011670.952    23011686.190
       222.000         168.000
  20844697.789      -73153.37549    -65800.80747  20844697.496    20844707.083
       245.000         211.000
  24258091.779    -2789312.81249  -2157594.82945  24258089.664    24258108.713
       211.000         146.000
  22171256.277    -2446911.05349  -1895859.57747  22171255.949    22171267.742
       231.000         189.000
  20716357.228    -1615726.88949  -1254812.74047  20716356.465    20716366.358
       242.000         208.000
 02  2 13 23 21  0.0000000  0  7G30G24G23G 5G17G 6G10
  20413953.184    -1475404.29649  -1146066.03847  20413953.504    20413962.109
       248.000         212.000
  22622540.553      526863.71249    395503.76046  22622540.791    22622552.671
       231.000         181.000
  22992947.171    -3302961.16149  -2557039.75446  22992945.645    22992961.079
       223.000         169.000
  20855068.173      -18656.63449    -23335.85647  20855067.407    20855077.565
       245.000         211.000
  24243182.085    -2867662.61749  -2218646.28745  24243180.985    24243198.671
       211.000         146.000
  22159210.669    -2510210.86949  -1945183.97347  22159210.258    22159221.873
       232.000         189.000
  20713078.285    -1632957.29549  -1268238.97547  20713077.185    20713087.429
       242.000         208.000
 02  2 13 23 21 30.0000000  0  7G30G24G23G 5G17G 6G10
  20412043.495    -1485439.80449  -1153885.88347  20412043.676    20412052.312
       247.000         212.000
  22636903.136      602338.80649    454315.41946  22636903.068    22636915.477
       230.000         181.000
  22974258.158    -3401171.42249  -2633566.89046  22974256.913    22974272.223
       222.000         170.000
  20865530.048       36321.00049     19503.80947  20865529.594    20865539.245
       244.000         210.000
  24228305.561    -2945838.03349  -2279561.86245  24228304.144    24228323.373
       212.000         147.000
  22147177.838    -2573443.51649  -1994456.03847  22147177.518    22147189.041
       232.000         189.000
  20709917.822    -1649565.16949  -1281180.13347  20709916.713    20709926.837
       241.000         208.000
 02  2 13 23 22  0.0000000  0  7G30G24G23G 5G17G 6G10
  20410245.133    -1494890.11449  -1161249.72247  20410245.251    20410253.955
       248.000         212.000
  22651276.865      677872.77749    513172.96546  22651276.438    22651289.712
       230.000         181.000
  22955605.641    -3499189.89749  -2709944.58446  22955604.066    22955619.031
       221.000         169.000
  20876083.077       91777.32149     62716.47847  20876082.679    20876092.400
       245.000         210.000
  24213462.173    -3023839.13449  -2340341.63145  24213460.880    24213479.605
       212.000         147.000
  22135157.774    -2636608.74149  -2043675.56347  22135157.339    22135168.471
       232.000         189.000
  20706875.873    -1665550.39649  -1293636.11047  20706874.869    20706884.847
       243.000         208.000
 02  2 13 23 22 30.0000000  0  7G30G24G23G 5G17G 6G10
  20408558.513    -1503753.31549  -1168156.08747  20408558.979    20408567.462
       247.000         212.000
  22665661.789      753465.32649    572076.14246  22665661.379    22665673.926
       230.000         181.000
  22936990.436    -3597012.36649  -2786169.55346  22936989.503    22937004.386
       220.000         168.000
  20886727.138      147711.86349    106301.77947  20886726.810    20886736.763
       245.000         211.000
  24198652.375    -3101664.00649  -2400984.07845  24198651.462    24198669.394
       212.000         148.000
  22123151.041    -2699704.11649  -2092840.67347  22123150.562    22123162.418
       232.000         189.000
  20703952.860    -1680911.04949  -1305605.42047  20703952.342    20703961.813
       243.000         208.000
 02  2 13 23 23  0.0000000  0  7G30G24G23G 5G17G 6G10
  20406983.595    -1512029.71149  -1174605.19447  20406983.959    20406992.501
       246.000         212.000
  22680057.391      829114.29349    631023.28946  22680057.563    22680069.197
       230.000         180.000
  22918412.843    -3694636.90949  -2862240.29746  22918411.364    22918426.123
       218.000         166.000
  20897461.756      204122.22949    150257.85947  20897461.389    20897471.410
       244.000         211.000
  24183875.979    -3179313.15349  -2461489.60645  24183875.531    24183893.433
       212.000         149.000
  22111157.655    -2762729.45449  -2141951.20147  22111157.064    22111168.631
       232.000         189.000
  20701148.695    -1695647.31249  -1317088.18447  20701148.263    20701157.522
       243.000         208.000
 02  2 13 23 23 30.0000000  0  7G30G24G23G 5G17G 6G10
  20405520.357    -1519719.07849  -1180596.87747  20405520.642    20405529.135
       247.000         212.000
  22694463.328      904817.61549    690012.79446  22694463.999    22694476.023
       229.000         179.000
  22899873.309    -3792061.32149  -2938155.08646  22899871.629    22899886.805
       218.000         164.000
  20908286.499      261006.45749    194583.17947  20908286.145    20908295.975
       244.000         211.000
  24169133.132    -3256786.61549  -2521858.25445  24169131.588    24169149.261
       211.000         149.000
  22099177.712    -2825684.24549  -2191006.76147  22099177.178    22099188.776
       232.000         189.000
  20698463.365    -1709759.23749  -1328084.45747  20698462.692    20698472.188
       242.000         209.000
 02  2 13 23 24  0.0000000  0  7G30G24G23G 5G17G 6G10
  20404169.065    -1526820.22849  -1186130.21447  20404169.507    20404177.901
       247.000         212.000
  22708879.460      980574.72949    749044.20946  22708879.580    22708892.031
       229.000         179.000
  22881372.485    -3889282.26949  -3013911.34445  22881370.717    22881386.397
       216.000         162.000
  20919201.201      318363.33249    239276.79647  20919200.779    20919210.854
       244.000         210.000
  24154423.832    -3334083.24049  -2582089.09945  24154422.661    24154441.127
       210.000         149.000
  22087211.479    -2888566.91749  -2240006.13047  22087210.782    22087222.286
       233.000         189.000
  20695897.007    -1723245.55749  -1338593.24747  20695896.229    20695905.971
       242.000         209.000
 02  2 13 23 24 30.0000000  0  7G30G24G23G 5G17G 6G10
  20402929.889    -1533331.97249  -1191204.27347  20402930.165    20402938.460
       247.000         212.000
  22723305.733     1056384.95849    808117.01446  22723305.983    22723317.648
       229.000         179.000
  22862911.017    -3986296.16549  -3089506.26045  22862909.797    22862924.732
       216.000         162.000
  20930205.676      376191.93649    284337.99247  20930205.380    20930215.325
       244.000         210.000
  24139748.478    -3411201.71749  -2642181.14545  24139747.131    24139764.558
       213.000         149.000
  22075259.294    -2951375.62349  -2288947.86447  22075258.626    22075270.253
       233.000         190.000
  20693449.897    -1736104.88449  -1348613.46947  20693449.023    20693458.804
       242.000         208.000
 02  2 13 23 25  0.0000000  0  7G30G24G23G 5G17G 6G10
  20401802.584    -1539255.90149  -1195820.29747  20401802.946    20401811.602
       247.000         212.000
  22737741.397     1132244.55549    867228.28446  22737741.319    22737754.377
       228.000         178.000
  22844489.203    -4083102.33049  -3164939.30946  22844488.150    22844502.487
       216.000         164.000
  20941299.227      434488.56649    329763.88247  20941299.080    20941308.800
       244.000         210.000
  24125106.705    -3488143.76049  -2702135.69345  24125106.286    24125123.592
       212.000         149.000
  22063320.986    -3014111.35449  -2337832.74247  22063320.681    22063331.971
       233.000         190.000
  20691121.849    -1748338.79749  -1358146.35747  20691121.105    20691130.796
       242.000         208.000
 02  2 13 23 25 30.0000000  0  7G30G24G23G 5G17G 6G10
  20400787.316    -1544591.02149  -1199977.50747  20400787.669    20400796.000
       247.000         212.000
  22752186.218     1208152.35449    926377.11946  22752186.069    22752198.181
       227.000         178.000
  22826107.433    -4179697.79949  -3240208.17746  22826106.375    22826120.383
       217.000         166.000
  20952481.584      493251.79649    375553.36047  20952481.249    20952491.152
       244.000         211.000
  24110498.603    -3564908.67649  -2761952.22945  24110497.010    24110514.784
       212.000         150.000
  22051396.812    -3076772.84749  -2386659.76047  22051396.616    22051408.033
       233.000         190.000
  20688912.979    -1759946.52849  -1367191.30247  20688912.264    20688921.859
       242.000         208.000
 02  2 13 23 26  0.0000000  0  7G30G24G23G 5G17G 6G10
  20399884.549    -1549335.06949  -1203674.13847  20399884.844    20399893.351
       248.000         212.000
  22766640.292     1284108.67049    985563.77446  22766639.903    22766652.903
       228.000         177.000
  22807766.691    -4276077.87349  -3315309.21346  22807765.433    22807779.760
       220.000         168.000
  20963752.715      552481.86249    421706.60747  20963752.126    20963762.321
       245.000         210.000
  24095924.708    -3641493.99549  -2821628.81845  24095923.379    24095940.837
       213.000         150.000
  22039487.347    -3139357.05349  -2435426.56747  22039487.151    22039497.847
       235.000         191.000
  20686823.644    -1770925.77949  -1375746.51947  20686822.621    20686832.422
       243.000         208.000
 02  2 13 23 26 30.0000000  0  7G30G24G23G 5G17G 6G10
  20399094.051    -1553489.19949  -1206911.10247  20399094.411    20399102.795
       248.000         212.000
  22781103.067     1360110.83949   1044786.14146  22781102.581    22781115.057
       228.000         176.000
  22789467.138    -4372241.48549  -3390241.58646  22789465.921    22789480.420
       221.000         169.000
  20975112.018      612175.32549    468220.93447  20975111.532    20975121.600
       245.000         210.000
  24081384.672    -3717900.97349  -2881166.44545  24081383.115    24081401.790
       214.000         151.000
  22027592.524    -3201864.53349  -2484133.58847  22027592.375    22027603.196
       235.000         191.000
  20684853.677    -1781277.67349  -1383812.89447  20684852.804    20684862.873
       243.000         208.000
 02  2 13 23 27  0.0000000  0  7G30G24G23G 5G17G 6G10
  20398415.897    -1557052.91149  -1209688.00447  20398416.220    20398424.516
       248.000         212.000
  22795574.249     1436157.13149   1104042.89546  22795574.732    22795587.217
       228.000         176.000
  22771209.401    -4468185.60849  -3465002.94246  22771208.410    22771222.202
       223.000         171.000
  20986559.202      672330.63949    515095.14447  20986558.838    20986568.827
       244.000         209.000
  24066878.738    -3794128.94749  -2940564.58045  24066877.537    24066894.774
       213.000         151.000
  22015712.484    -3264294.04049  -2532779.84547  22015711.960    22015723.378
       234.000         191.000
  20683003.199    -1791001.92949  -1391390.20247  20683002.425    20683012.296
       242.000         208.000
 02  2 13 23 27 30.0000000  0  7G30G24G23G 5G17G 6G10
  20397850.209    -1560025.59649  -1212004.35547  20397850.362    20397858.896
       248.000         212.000
  22810053.768     1512246.94549   1163333.57346  22810053.209    22810066.785
       228.000         175.000
  22752993.982    -4563907.39349  -3539591.06446  22752992.811    22753007.264
       225.000         172.000
  20998093.993      732946.15149    562327.95647  20998093.592    20998103.651
       244.000         209.000
  24052406.993    -3870177.29749  -2999822.75145  24052405.956    24052423.172
       214.000         151.000
  22003847.506    -3326644.29549  -2581364.34447  22003847.134    22003858.129
       235.000         191.000
  20681272.303    -1800097.75349  -1398477.81947  20681271.574    20681281.072
       242.000         208.000
 02  2 13 23 28  0.0000000  0  7G30G24G23G 5G17G 6G10
  20397396.906    -1562407.68049  -1213860.50647  20397397.196    20397405.720
       247.000         212.000
  22824541.091     1588377.87349   1222656.28546  22824541.009    22824554.582
       227.000         176.000
  22734821.235    -4659405.01249  -3614004.52246  22734820.651    22734834.224
       225.000         174.000
  21009715.875      794019.16149    609917.25347  21009715.736    21009725.391
       244.000         209.000
  24037969.397    -3946046.63149  -3058941.44145  24037968.401    24037985.544
       213.000         152.000
  21991997.675    -3388915.06749  -2629886.91647  21991997.297    21992008.531
       234.000         192.000
  20679660.882    -1808565.71149  -1405076.19447  20679659.919    20679669.964
       241.000         208.000
 02  2 13 23 28 30.0000000  0  7G30G24G23G 5G17G 6G10
  20397056.407    -1564196.90749  -1215254.69247  20397056.662    20397065.182
       247.000         212.000
  22839036.305     1664550.43949   1282011.43246  22839036.514    22839049.356
       227.000         176.000
  22716691.996    -4754673.80649  -3688239.68246  22716691.092    22716704.677
       225.000         175.000
  21021424.869      855549.87149    657863.20447  21021424.611    21021434.372
       244.000         209.000
  24023566.297    -4021734.49349  -3117918.72345  24023565.352    24023582.206
       213.000         152.000
  21980163.599    -3451103.23249  -2678345.12247  21980163.529    21980174.329
       235.000         192.000
  20678169.304    -1816403.66049  -1411183.65847  20678168.452    20678178.072
       242.000         208.000
 02  2 13 23 29  0.0000000  0  7G30G24G23G 5G17G 6G10
  20396828.381    -1565395.12349  -1216188.34747  20396828.699    20396837.032
       247.000         212.000
  22853538.763     1740760.87249   1341396.08446  22853538.884    22853551.728
       227.000         175.000
  22698606.348    -4849713.38449  -3762296.23546  22698604.943    22698619.448
       226.000         176.000
  21033220.221      917534.29449    706162.69747  21033220.065    21033229.655
       245.000         209.000
  24009197.304    -4097242.89149  -3176756.16945  24009196.149    24009213.372
       214.000         153.000
  21968345.008    -3513210.03449  -2726739.93147  21968344.721    21968355.873
       235.000         192.000
  20676797.318    -1823613.39849  -1416801.59847  20676796.542    20676806.311
       242.000         208.000
 02  2 13 23 29 30.0000000  0  7G30G24G23G 5G17G 6G10
  20396713.138    -1566000.81749  -1216660.29747  20396713.489    20396721.841
       247.000         212.000
  22868048.513     1817009.40049   1400810.42446  22868048.420    22868060.724
       227.000         176.000
  22680565.137    -4944519.58849  -3836170.95146  22680564.302    22680577.440
       225.000         177.000
  21045101.800      979972.12149    754815.49447  21045101.499    21045111.622
       244.000         209.000
  23994862.826    -4172569.93949  -3235452.30245  23994861.243    23994878.824
       215.000         153.000
  21956542.436    -3575232.69449  -2775069.16947  21956541.742    21956552.915
       235.000         192.000
  20675545.171    -1830193.28549  -1421928.75247  20675544.518    20675554.158
       243.000         208.000
 02  2 13 23 30  0.0000000  0  7G30G24G23G 5G17G 6G10
  20396710.551    -1566014.35749  -1216670.82647  20396711.031    20396719.228
       249.000         212.000
  22882565.133     1893294.11149   1460252.97246  22882565.360    22882577.997
       229.000         175.000
  22662568.746    -5039090.40449  -3909862.25846  22662567.971    22662581.399
       228.000         176.000
  21057069.153     1042860.68449    803819.51047  21057068.765    21057078.775
       245.000         209.000
  23980562.855    -4247715.78349  -3294007.24445  23980561.862    23980579.283
       217.000         154.000
  21944755.952    -3637170.78849  -2823332.50147  21944755.852    21944766.646
       236.000         193.000
  20674412.802    -1836144.04149  -1426565.66747  20674412.022    20674421.792
       244.000         208.000
 02  2 13 23 30 30.0000000  0  7G30G24G23G 5G17G 6G10
  20396820.769    -1565435.21949  -1216219.53347  20396821.145    20396829.457
       247.000         212.000
  22897088.330     1969613.68749   1519722.67746  22897088.805    22897100.842
       227.000         176.000
  22644617.697    -5133422.93249  -3983367.90446  22644615.979    22644629.958
       226.000         176.000
  21069121.931     1106198.28649    853173.41947  21069121.501    21069131.406
       242.000         208.000
  23966297.450    -4322680.04349  -3352420.70845  23966296.328    23966313.790
       215.000         154.000
  21932985.731    -3699023.07049  -2871528.98147  21932985.220    21932995.930
       236.000         193.000
  20673400.215    -1841465.19549  -1430711.99547  20673399.443    20673409.096
       242.000         209.000
 02  2 13 23 31  0.0000000  0  7G30G24G23G 5G17G 6G10
  20397043.935    -1564262.31949  -1215305.57447  20397044.700    20397052.800
       247.000         212.000
  22911618.168     2045967.82949   1579219.31446  22911618.097    22911630.918
       227.000         176.000
  22626712.658    -5227513.64249  -4056685.13546  22626711.504    22626725.506
       226.000         175.000
  21081259.947     1169983.94849    902876.46147  21081259.618    21081270.130
       241.000         207.000
  23952066.824    -4397461.36749  -3410691.62145  23952066.290    23952082.085
       214.000         155.000
  21921232.334    -3760787.49149  -2919656.99447  21921232.007    21921243.027
       236.000         194.000
  20672507.691    -1846155.63349  -1434366.86347  20672507.351    20672516.671
       242.000         209.000
 02  2 13 23 31 30.0000000  0  7G30G24G23G 5G17G 6G10
  20397379.863    -1562497.15449  -1213930.09947  20397380.287    20397388.724
       247.000         212.000
  22926153.975     2122353.63849   1638740.62346  22926154.164    22926166.899
       227.000         176.000
  22608853.865    -5321361.43149  -4129813.07246  22608852.747    22608867.303
       223.000         175.000
  21093482.543     1234213.85749    952925.68147  21093482.276    21093492.427
       241.000         207.000
  23937870.734    -4472061.28949  -3468821.18145  23937869.708    23937886.641
       215.000         153.000
  21909495.506    -3822464.82749  -2967717.14447  21909495.132    21909505.483
       236.000         194.000
  20671734.851    -1850216.97749  -1437531.51647  20671734.306    20671743.795
       242.000         209.000
 02  2 13 23 32  0.0000000  0  7G30G24G23G 5G17G 6G10
  20397828.578    -1560139.03449  -1212092.58047  20397828.687    20397837.213
       247.000         212.000
  22940695.595     2198769.97949   1698285.72446  22940694.877    22940708.636
       225.000         175.000
  22591041.905    -5414963.08349  -4202749.21146  22591040.788    22591054.191
       224.000         174.000
  21105789.433     1298886.87849   1003320.18147  21105788.966    21105799.289
       241.000         206.000
  23923709.404    -4546478.64749  -3526808.49145  23923708.201    23923725.690
       216.000         156.000
  21897775.553    -3884053.13349  -3015707.91547  21897775.016    21897785.803
       236.000         194.000
  20671081.894    -1853648.39549  -1440205.32047  20671081.208    20671090.494
       243.000         209.000
 02  2 13 23 32 30.0000000  0  7G30G24G23G 5G17G 6G10
  20398390.300    -1557186.94349  -1209792.22947  20398390.528    20398398.857
       248.000         212.000
  22955242.908     2275216.62949   1757854.42446  22955242.996    22955255.661
       225.000         173.000
  22573277.429    -5508314.84549  -4275490.63046  22573276.256    22573289.537
       224.000         174.000
  21118180.442     1364001.99849   1054059.17547  21118180.018    21118190.064
       242.000         206.000
  23909583.107    -4620712.17849  -3584652.55045  23909581.441    23909599.011
       217.000         156.000
  21886072.933    -3945550.17249  -3063627.57247  21886072.377    21886083.096
       236.000         194.000
  20670548.937    -1856449.12349  -1442387.67647  20670547.937    20670557.647
       243.000         210.000
 02  2 13 23 33  0.0000000  0  7G30G24G23G 5G17G 6G10
  20399064.868    -1553642.08549  -1207029.99348  20399065.421    20399073.778
       247.000         213.000
  22969795.548     2351691.05549   1817444.76646  22969794.892    22969808.940
       224.000         172.000
  22555560.759    -5601415.50049  -4348036.38346  22555559.751    22555572.549
       223.000         174.000
  21130654.964     1429555.79349   1105139.98447  21130654.682    21130664.887
       241.000         206.000
  23895491.533    -4694762.99949  -3642354.26245  23895491.106    23895506.968
       215.000         157.000
  21874387.598    -4006956.32149  -3111476.41647  21874386.917    21874397.874
       236.000         194.000
  20670135.751    -1858620.29049  -1444079.47547  20670134.943    20670144.596
       242.000         209.000
 02  2 13 23 33 30.0000000  0  7G30G24G23G 5G17G 6G10
  20399852.361    -1549503.93849  -1203805.44247  20399852.856    20399861.131
       248.000         212.000
  22984353.321     2428192.38949   1877056.09746  22984353.803    22984366.050
       225.000         171.000
  22537892.471    -5694262.02449  -4420384.10146  22537891.722    22537905.458
       224.000         174.000
  21143212.645     1495546.80449   1156561.48947  21143212.509    21143222.534
       242.000         206.000
  23881434.866    -4768630.40749  -3699913.03845  23881433.598    23881450.056
       215.000         158.000
  21862719.926    -4068270.05749  -3159253.24747  21862719.804    21862730.697
       236.000         195.000
  20669842.411    -1860161.49349  -1445280.38247  20669841.566    20669851.201
       242.000         209.000
 02  2 13 23 34  0.0000000  0  7G30G24G23G 5G17G 6G10
  20400752.860    -1544771.90949  -1200118.13448  20400753.043    20400761.644
       248.000         213.000
  22998916.175     2504720.05049   1936687.93046  22998916.971    22998929.383
       227.000         171.000
  22520273.215    -5786851.09749  -4492531.21246  22520272.500    22520285.648
       226.000         175.000
  21155853.346     1561973.74249   1208322.67547  21155853.078    21155863.131
       243.000         206.000
  23867413.271    -4842313.28349  -3757328.02345  23867411.735    23867429.511
       217.000         158.000
  21851070.176    -4129489.43949  -3206956.54747  21851069.539    21851080.735
       237.000         195.000
  20669669.083    -1861072.22749  -1445990.01847  20669668.137    20669677.869
       243.000         209.000
 02  2 13 23 34 30.0000000  0  7G30G24G23G 5G17G 6G10
  20401766.126    -1539447.12749  -1195968.93947  20401766.281    20401774.660
       249.000         212.000
  23013483.548     2581271.36149   1996338.22246  23013483.257    23013496.485
       227.000         171.000
  22502703.191    -5879181.41849  -4564476.69446  22502702.293    22502714.778
       227.000         176.000
  21168576.374     1628833.12349   1260420.83447  21168575.880    21168586.078
       243.000         206.000
  23853426.560    -4915812.72549  -3814600.08745  23853425.397    23853442.064
       216.000         157.000
  21839438.421    -4190614.37949  -3254586.25947  21839437.682    21839448.929
       237.000         195.000
  20669615.466    -1861353.67049  -1446209.29347  20669614.294    20669624.372
       243.000         209.000
 02  2 13 23 35  0.0000000  0  7G30G24G23G 5G17G 6G10
  20402892.325    -1533528.70949  -1191357.18447  20402892.421    20402900.938
       247.000         212.000
  23028055.312     2657846.09149   2056006.71846  23028056.438    23028067.574
       225.000         171.000
  22485183.176    -5971249.31049  -4636217.70646  22485182.842    22485195.469
       226.000         176.000
  21181381.506     1696124.00349   1312855.21247  21181381.425    21181391.306
       243.000         206.000
  23839475.050    -4989127.49449  -3871728.23745  23839473.836    23839491.019
       214.000         158.000
  21827825.030    -4251642.71149  -3302140.70647  21827824.771    21827835.504
       237.000         195.000
  20669681.749    -1861005.15749  -1445937.70547  20669680.818    20669690.765
       242.000         209.000
 02  2 13 23 35 30.0000000  0  7G30G24G23G 5G17G 6G10
  20404131.363    -1527017.46049  -1186283.47747  20404131.793    20404140.141
       247.000         212.000
  23042631.173     2734442.10149   2115691.80846  23042631.088    23042644.734
       225.000         172.000
  22467713.385    -6063052.94949  -4707752.79246  22467712.796    22467725.768
       225.000         177.000
  21194268.228     1763843.74949   1365623.78147  21194267.944    21194278.155
       242.000         206.000
  23825558.594    -5062258.00749  -3928712.81445  23825557.290    23825574.953
       215.000         158.000
  21816230.101    -4312574.09049  -3349619.59847  21816229.579    21816240.397
       236.000         195.000
  20669867.744    -1860027.38549  -1445175.77847  20669866.779    20669876.833
       242.000         209.000
 02  2 13 23 36  0.0000000  0  7G30G24G23G 5G17G 6G10
  20405483.581    -1519911.69749  -1180746.52047  20405484.127    20405492.259
       247.000         212.000
  23057211.179     2811060.00849   2175393.95846  23057211.225    23057225.208
       225.000         173.000
  22450294.718    -6154587.95849  -4779078.56346  22450293.026    22450306.512
       226.000         177.000
  21207236.377     1831991.66849   1418725.98547  21207236.186    21207246.117
       242.000         206.000
  23811677.601    -5135202.45649  -3985552.41545  23811676.479    23811692.508
       215.000         159.000
  21804654.168    -4373405.88049  -3397020.89447  21804654.112    21804664.736
       237.000         196.000
  20670173.768    -1858419.14749  -1443922.58647  20670173.077    20670182.748
       242.000         209.000
 02  2 13 23 36 30.0000000  0  7G30G24G23G 5G17G 6G10
  20406948.345    -1512214.25549  -1174748.50547  20406948.673    20406956.934
       247.000         212.000
  23071794.565     2887695.75249   2235110.00446  23071795.109    23071807.337
       225.000         173.000
  22432927.073    -6245854.40349  -4850195.04846  22432925.929    22432938.791
       227.000         177.000
  21220285.124     1900563.14049   1472158.24047  21220284.683    21220294.944
       242.000         205.000
  23797831.564    -5207963.21449  -4042248.86345  23797830.535    23797847.032
       215.000         159.000
  21793096.948    -4434139.31949  -3444345.54647  21793096.663    21793106.805
       237.000         196.000
  20670599.296    -1856182.96849  -1442180.07947  20670598.542    20670608.231
       242.000         209.000
 02  2 13 23 37  0.0000000  0  7G30G24G23G 5G17G 6G10
  20408526.134    -1503923.06949  -1168287.84048  20408526.661    20408534.809
       249.000         213.000
  23086381.594     2964350.60449   2294840.93546  23086381.631    23086394.771
       226.000         173.000
  22415611.485    -6336847.52249  -4921098.55246  22415610.846    22415623.374
       227.000         178.000
  21233414.530     1969558.32349   1525920.65047  21233414.423    21233424.542
       244.000         205.000
  23784020.940    -5280537.76249  -4098800.22645  23784019.966    23784036.066
       217.000         159.000
  21781559.052    -4494770.89249  -3491590.82747  21781559.030    21781568.877
       238.000         196.000
  20671144.671    -1853317.08549  -1439946.90047  20671144.195    20671153.704
       244.000         209.000
 02  2 13 23 37 30.0000000  0  7G30G24G23G 5G17G 6G10
  20410216.759    -1495038.82049  -1161365.04847  20410217.161    20410225.408
       248.000         212.000
  23100971.833     3041022.35649   2354585.05546  23100971.480    23100984.823
       226.000         173.000
  22398348.294    -6427565.20649  -4991787.43446  22398347.297    22398360.993
       227.000         179.000
  21246624.083     2038974.58049   1580011.17147  21246623.938    21246634.055
       244.000         205.000
  23770245.609    -5352926.41649  -4155206.72545  23770244.532    23770259.789
       216.000         159.000
  21770040.656    -4555300.01749  -3538756.27847  21770040.135    21770050.807
       238.000         196.000
  20671809.754    -1849822.24249  -1437223.61947  20671808.984    20671818.666
       244.000         210.000
 02  2 13 23 38  0.0000000  0  7G30G24G23G 5G17G 6G10
  20412020.102    -1485562.11349  -1153980.60447  20412020.322    20412028.558
       248.000         212.000
  23115564.960     3117709.41649   2414341.09646  23115564.957    23115577.627
       225.000         171.000
  22381137.921    -6518005.47549  -5062260.14846  22381137.081    22381149.295
       229.000         180.000
  21259913.286     2108809.36049   1634427.81447  21259912.749    21259922.953
       243.000         205.000
  23756505.615    -5425129.35149  -4211468.51845  23756504.954    23756520.818
       219.000         160.000
  21758541.960    -4615725.80849  -3585841.21247  21758541.595    21758551.996
       239.000         197.000
  20672594.392    -1845699.08149  -1434010.74647  20672593.661    20672603.107
       244.000         210.000
 02  2 13 23 38 30.0000000  0  7G30G24G23G 5G17G 6G10
  20413936.380    -1475492.04849  -1146133.80947  20413936.806    20413945.204
       249.000         212.000
  23130161.066     3194412.12849   2474109.32346  23130161.103    23130175.013
       224.000         169.000
  22363981.107    -6608164.53349  -5132513.74946  22363979.989    22363992.736
       229.000         181.000
  21273281.985     2179061.75849   1689169.86847  21273281.873    21273292.027
       244.000         205.000
  23742801.293    -5497145.32749  -4267584.61945  23742800.961    23742816.734
       218.000         161.000
  21747063.358    -4676045.96249  -3632843.84747  21747063.052    21747073.412
       239.000         197.000
  20673498.748    -1840946.80049  -1430307.65847  20673498.315    20673507.614
       245.000         210.000
 02  2 13 23 39  0.0000000  0  7G30G24G23G 5G17G 6G10
  20415965.144    -1464830.75049  -1137826.30747  20415965.561    20415974.049
       246.000         212.000
  23144759.428     3271127.00949   2533887.04646  23144758.687    23144772.498
       222.000         167.000
  22346877.944    -6698041.72149  -5202547.70446  22346877.549    22346889.889
       228.000         182.000
  21286729.353     2249727.68549   1744234.16347  21286729.154    21286739.127
       243.000         205.000
  23729132.194    -5568975.86849  -4323556.22945  23729130.964    23729146.794
       215.000         161.000
  21735604.757    -4736261.02649  -3679764.58147  21735604.324    21735614.788
       237.000         197.000
  20674522.410    -1835567.61449  -1426116.06647  20674521.627    20674531.260
       243.000         210.000
 02  2 13 23 39 30.0000000  0  7G30G24G23G 5G17G 6G10
  20418106.831    -1453575.98949  -1129056.36547  20418107.159    20418115.732
       244.000         212.000
  23159360.402     3347855.37849   2593675.27746  23159360.438    23159373.291
       223.000         166.000
  22329829.262    -6787632.25949  -5272358.29046  22329828.711    22329841.031
       228.000         183.000
  21300255.357     2320807.19949   1799620.72747  21300255.100    21300265.426
       240.000         204.000
  23715498.844    -5640618.57549  -4379381.47245  23715498.052    23715514.301
       215.000         161.000
  21724166.798    -4796367.36949  -3726600.60047  21724166.463    21724176.890
       237.000         198.000
  20675665.635    -1829559.62249  -1421434.49447  20675664.975    20675674.600
       242.000         210.000
 02  2 13 23 40  0.0000000  0  7G30G24G23G 5G17G 6G10
  20420360.918    -1441730.88649  -1119826.41547  20420361.208    20420369.679
       246.000         212.000
  23173963.252     3424593.46749   2653471.08846  23173963.059    23173977.128
       225.000         167.000
  22312835.158    -6876936.21349  -5341945.57146  22312834.106    22312846.762
       230.000         184.000
  21313859.177     2392295.60449   1855325.90947  21313858.663    21313869.017
       241.000         203.000
  23701900.833    -5712075.84249  -4435062.20745  23701900.006    23701916.165
       218.000         161.000
  21712749.331    -4856366.49849  -3773353.07447  21712749.286    21712759.258
       239.000         198.000
  20676927.876    -1822926.08949  -1416265.48347  20676926.831    20676936.855
       243.000         209.000
 02  2 13 23 40 30.0000000  0  7G30G24G23G 5G17G 6G10
  20422727.638    -1429293.70249  -1110135.10547  20422728.010    20422736.332
       245.000         212.000
  23188568.118     3501342.02749   2713275.04846  23188567.928    23188581.327
       226.000         168.000
  22295896.454    -6965948.90949  -5411305.89846  22295894.843    22295908.385
       229.000         185.000
  21327540.739     2464192.57849   1911349.44747  21327540.261    21327550.624
       240.000         202.000
  23688338.513    -5783345.51549  -4490596.77645  23688337.665    23688352.934
       217.000         162.000
  21701352.871    -4916255.06049  -3820019.39647  21701352.676    21701362.667
       239.000         198.000
  20678309.502    -1815665.20649  -1410607.63147  20678308.635    20678318.323
       242.000         209.000
 02  2 13 23 41  0.0000000  0  7G30G24G23G 5G17G 6G10
  20425206.814    -1416265.53149  -1099983.28447  20425207.263    20425215.749
       245.000         212.000
  23203174.558     3578098.98449   2773085.57146  23203174.447    23203188.527
       226.000         169.000
  22279013.444    -7054668.68249  -5480437.97746  22279012.690    22279024.854
       229.000         185.000
  21341299.478     2536495.11249   1967689.00747  21341299.266    21341309.511
       240.000         202.000
  23674811.771    -5854428.10949  -4545985.56045  23674811.119    23674826.774
       216.000         162.000
  21689977.503    -4976032.61349  -3866599.21447  21689977.111    21689987.580
       239.000         198.000
  20679810.345    -1807778.03349  -1404461.76447  20679809.546    20679819.463
       242.000         209.000
 02  2 13 23 41 30.0000000  0  7G30G24G23G 5G17G 6G10
  20427798.341    -1402646.88249  -1089371.35047  20427798.489    20427806.943
       245.000         212.000
  23217782.394     3654863.13449   2832901.68646  23217782.763    23217795.295
       225.000         169.000
  22262186.689    -7143093.02649  -5549339.85446  22262185.580    22262198.364
       230.000         185.000
  21355134.970     2609200.83349   2024342.74347  21355134.598    21355145.065
       239.000         202.000
  23661320.615    -5925323.56149  -4601228.52245  23661319.020    23661335.786
       217.000         161.000
  21678623.489    -5035697.84149  -3913091.50847  21678622.982    21678633.256
       238.000         198.000
  20681430.269    -1799265.38849  -1397828.51547  20681429.594    20681439.255
       243.000         209.000
 02  2 13 23 42  0.0000000  0  7G30G24G23G 5G17G 6G10
  20430502.319    -1388437.30049  -1078298.95047  20430502.527    20430511.049
       246.000         211.000
  23232391.537     3731634.33849   2892723.30246  23232391.440    23232403.905
       226.000         168.000
  22245416.777    -7231218.57749  -5618008.91746  22245415.879    22245428.287
       231.000         185.000
  21369046.920     2682308.29849   2081309.52447  21369046.437    21369057.265
       240.000         202.000
  23647865.244    -5996031.04249  -4656325.03445  23647864.514    23647878.685
       218.000         162.000
  21667291.232    -5095248.69649  -3959494.67247  21667290.857    21667301.548
       240.000         198.000
  20683169.303    -1790126.84249  -1390707.55347  20683168.570    20683178.238
       244.000         209.000
 02  2 13 23 42 30.0000000  0  7G30G24G23G 5G17G 6G10
  20433318.640    -1373637.54549  -1066766.67447  20433318.958    20433327.326
       245.000         211.000
  23247001.700     3808411.15249   2952549.28346  23247001.376    23247014.016
       223.000         166.000
  22228704.122    -7319043.38549  -5686443.62846  22228702.689    22228715.526
       229.000         184.000
  21383034.823     2755814.99249   2138587.39147  21383034.393    21383045.017
       239.000         201.000
  23634445.656    -6066550.66349  -4711275.14845  23634444.545    23634460.413
       216.000         161.000
  21655980.952    -5154684.27749  -4005808.01947  21655980.437    21655990.797
       238.000         199.000
  20685027.235    -1780363.57649  -1383099.79747  20685026.564    20685035.868
       243.000         209.000
 02  2 13 23 43  0.0000000  0  7G30G24G23G 5G17G 6G10
  20436247.076    -1358248.51849  -1054775.23147  20436247.390    20436255.882
       245.000         211.000
  23261612.630     3885192.02049   3012378.43546  23261612.301    23261625.090
       223.000         165.000
  22212049.129    -7406565.00949  -5754642.10946  22212048.319    22212060.752
       228.000         184.000
  21397098.266     2829718.56949   2196174.51347  21397098.137    21397108.565
       239.000         201.000
  23621061.749    -6136882.43849  -4766078.89445  23621060.520    23621076.145
       217.000         161.000
  21644692.828    -5214003.42249  -4052030.64247  21644692.501    21644703.173
       238.000         199.000
  20687003.895    -1769976.19349  -1375005.72747  20687003.366    20687012.592
       243.000         210.000
 02  2 13 23 43 30.0000000  0  7G30G24G23G 5G17G 6G10
  20439287.714    -1342269.93349  -1042324.38847  20439287.975    20439296.465
       245.000         211.000
  23276224.273     3961976.56749   3072210.44546  23276224.755    23276238.208
       224.000         165.000
  22195452.298    -7493780.81149  -5822602.27446  22195451.719    22195463.801
       229.000         183.000
  21411236.874     2904017.15349   2254069.43947  21411236.320    21411247.203
       239.000         201.000
  23607713.743    -6207025.85449  -4820735.86945  23607712.501    23607728.538
       218.000         161.000
  21633427.166    -5273204.35749  -4098161.14347  21633426.900    21633437.113
       239.000         199.000
  20689099.331    -1758964.76649  -1366425.38347  20689098.585    20689107.971
       244.000         210.000
 02  2 13 23 44  0.0000000  0  7G30G24G23G 5G17G 6G10
  20442440.215    -1325703.37949  -1029415.38747  20442440.773    20442449.134
       244.000         211.000
  23290836.179     4038762.21049   3132043.30146  23290837.119    23290850.109
       223.000         166.000
  22178914.009    -7580689.26849  -5890322.94746  22178913.428    22178925.082
       228.000         182.000
  21425450.058     2978707.47049   2312269.61447  21425449.990    21425460.537
       239.000         201.000
  23594401.383    -6276981.97949  -4875246.90545  23594400.217    23594415.978
       216.000         162.000
  21622184.112    -5332286.88349  -4144199.38647  21622184.083    21622194.084
       239.000         199.000
  20691313.162    -1747331.13749  -1357360.20747  20691312.432    20691321.916
       243.000         210.000
 02  2 13 23 44 30.0000000  0  7G30G24G23G 5G17G 6G10
  20445704.675    -1308548.65049  -1016048.06447  20445704.913    20445713.668
       245.000         211.000
  23305448.208     4115548.54349   3191876.70346  23305448.164    23305461.931
       222.000         167.000
  22162434.853    -7667287.07249  -5957801.56146  22162434.016    22162446.269
       230.000         183.000
  21439737.465     3053787.93649   2370773.80047  21439737.049    21439747.406
       239.000         201.000
  23581124.834    -6346749.75049  -4929611.17545  23581124.028    23581138.239
       217.000         162.000
  21610964.020    -5391248.64649  -4190143.51847  21610963.781    21610973.992
       239.000         199.000
  20693645.435    -1735075.04149  -1347809.99347  20693644.668    20693653.894
       243.000         209.000
 02  2 13 23 45  0.0000000  0  7G30G24G23G 5G17G 6G10
  20449080.869    -1290806.56449  -1002223.06147  20449080.996    20449089.569
       246.000         211.000
  23320060.320     4192334.97049   3251710.17246  23320061.367    23320074.476
       223.000         167.000
  22146015.260    -7753571.87649  -6025036.28246  22146013.724    22146026.128
       232.000         184.000
  21454098.619     3129256.00749   2429580.01347  21454098.457    21454108.672
       240.000         201.000
  23567884.102    -6416329.15549  -4983828.65545  23567882.494    23567898.830
       218.000         161.000
  21599767.075    -5450088.77949  -4235992.87647  21599766.833    21599777.024
       240.000         200.000
  20696095.967    -1722197.35249  -1337775.42247  20696095.082    20696104.752
       244.000         209.000
 02  2 13 23 45 30.0000000  0  7G30G24G23G 5G17G 6G10
  20452568.883    -1272476.92549   -987940.23447  20452569.351    20452577.887
       246.000         211.000
  23334672.275     4269120.61949   3311543.03246  23334672.442    23334687.183
       224.000         167.000
  22129655.891    -7839540.42949  -6092024.58046  22129655.488    22129666.826
       232.000         184.000
  21468533.230     3205110.23449   2488687.12447  21468533.164    21468543.665
       239.000         201.000
  23554679.426    -6485719.43749  -5037898.78745  23554678.435    23554693.656
       218.000         162.000
  21588593.628    -5508805.19149  -4281745.83647  21588593.148    21588603.509
       238.000         200.000
  20698664.682    -1708698.25149  -1327256.64147  20698663.853    20698673.473
       244.000         209.000
 02  2 13 23 46  0.0000000  0  7G30G24G23G 5G17G 6G10
  20456168.459    -1253560.98649   -973200.54447  20456168.899    20456177.281
       245.000         211.000
  23349283.764     4345903.83449   3371373.97546  23349283.877    23349297.504
       221.000         166.000
  22113357.016    -7925191.04549  -6158765.13246  22113356.132    22113368.007
       231.000         185.000
  21483040.724     3281347.48449   2548092.69147  21483040.391    21483051.035
       238.000         200.000
  23541510.621    -6554921.12349  -5091821.96245  23541509.452    23541524.681
       218.000         162.000
  21577443.878    -5567397.19649  -4327401.85347  21577443.567    21577453.823
       238.000         200.000
  20701351.443    -1694579.07649  -1316254.68247  20701350.803    20701360.310
       243.000         209.000
 02  2 13 23 46 30.0000000  0  7G30G24G23G 5G17G 6G10
  20459879.472    -1234059.68349   -958004.72247  20459879.820    20459888.241
       245.000         211.000
  23363894.468     4422683.14349   3431201.88646  23363894.323    23363908.655
       223.000         166.000
  22097119.041    -8010521.44249  -6225256.15846  22097118.233    22097130.128
       231.000         185.000
  21497620.618     3357965.10949   2607794.66547  21497620.227    21497631.163
       239.000         201.000
  23528377.654    -6623934.33849  -5145598.26745  23528377.163    23528391.772
       218.000         162.000
  21566318.047    -5625863.44049  -4372959.87947  21566317.639    21566327.433
       238.000         200.000
  20704156.058    -1679840.84249  -1304770.33747  20704155.391    20704164.757
       243.000         209.000
 02  2 13 23 47  0.0000000  0  7G30G24G23G 5G17G 6G10
  20463701.660    -1213973.97049   -942353.51747  20463701.874    20463710.390
       245.000         211.000
  23378504.229     4499457.44249   3491025.90446  23378503.779    23378518.061
       221.000         165.000
  22080942.338    -8095529.64249  -6291496.12346  22080941.133    22080953.288
       230.000         185.000
  21512272.395     3434960.32749   2667790.86347  21512272.014    21512282.875
       240.000         201.000
  23515280.449    -6692759.60949  -5199228.13245  23515279.471    23515294.941
       217.000         162.000
  21555216.371    -5684202.99949  -4418419.18647  21555215.845    21555226.020
       238.000         200.000
  20707078.239    -1664484.79849  -1292804.58447  20707077.379    20707086.993
       243.000         209.000
 02  2 13 23 47 30.0000000  0  7G30G24G23G 5G17G 6G10
  20467635.438    -1193301.89049   -926245.41447  20467635.811    20467644.320
       244.000         211.000
  23393113.349     4576228.34949   3550847.27346  23393113.205    23393128.042
       221.000         165.000
  22064827.917    -8180210.66949  -6357481.16546  22064826.538    22064838.676
       230.000         185.000
  21526996.135     3512333.54549   2728081.60547  21526995.931    21527006.574
       240.000         202.000
  23502219.624    -6761393.87849  -5252709.15846  23502218.443    23502234.027
       218.000         163.000
  21544139.516    -5742411.93049  -4463776.71447  21544139.293    21544149.433
       238.000         200.000
  20710118.330    -1648509.08049  -1280355.97947  20710117.694    20710126.993
       243.000         209.000
 02  2 13 23 48  0.0000000  0  7G30G24G23G 5G17G 6G10
  20471680.086    -1172047.07549   -909683.21747  20471680.401    20471688.892
       244.000         211.000
  23407721.007     4652991.69049   3610662.74846  23407721.072    23407735.137
       222.000         165.000
  22048775.670    -8264564.96449  -6423211.60046  22048774.601    22048786.708
       230.000         185.000
  21541790.834     3590079.53849   2788662.82947  21541790.539    21541801.162
       239.000         202.000
  23489194.531    -6829840.20349  -5306043.73746  23489193.690    23489208.650
       217.000         163.000
  21533087.192    -5800491.80649  -4509033.66947  21533086.814    21533096.920
       238.000         200.000
  20713275.601    -1631917.41649  -1267427.40147  20713274.808    20713284.402
       243.000         209.000
 02  2 13 23 48 30.0000000  0  7G30G24G23G 5G17G 6G10
  20475835.641    -1150209.45649   -892666.89547  20475836.004    20475844.541
       245.000         211.000
  23422327.258     4729747.43449   3670472.31146  23422327.560    23422340.723
       223.000         165.000
  22032786.207    -8348589.34749  -6488684.96646  22032785.470    22032797.412
       231.000         186.000
  21556656.081     3668196.60549   2849533.19947  21556655.868    21556666.434
       240.000         202.000
  23476205.365    -6898097.73849  -5359231.21746  23476204.072    23476219.343
       218.000         163.000
  21522059.867    -5858440.50249  -4554188.42047  21522059.548    21522069.335
       239.000         201.000
  20716550.098    -1614709.79049  -1254018.85647  20716549.531    20716558.724
       244.000         209.000
 02  2 13 23 49  0.0000000  0  7G30G24G23G 5G17G 6G10
  20480102.084    -1127789.04449   -875196.45547  20480102.470    20480110.768
       244.000         211.000
  23436931.964     4806495.05349   3730275.54446  23436932.070    23436945.311
       222.000         164.000
  22016860.135    -8432280.72849  -6553898.86946  22016859.116    22016870.932
       230.000         187.000
  21571591.662     3746683.26249   2910691.55047  21571591.378    21571602.000
       240.000         201.000
  23463252.329    -6966165.42349  -5412270.76146  23463251.719    23463266.405
       218.000         163.000
  21511057.915    -5916255.72749  -4599239.17247  21511057.585    21511067.383
       238.000         201.000
  20719941.820    -1596886.41049  -1240130.51047  20719941.293    20719950.468
       243.000         209.000
 02  2 13 23 49 30.0000000  0  7G30G24G23G 5G17G 6G10
  20484479.194    -1104787.18149   -857272.93147  20484479.470    20484488.041
       244.000         211.000
  23451534.773     4883232.94249   3790071.18346  23451534.510    23451548.495
       221.000         164.000
  22000997.746    -8515637.39549  -6618851.94347  22000996.917    22001008.688
       230.000         188.000
  21586596.975     3825536.30349   2972135.40347  21586596.620    21586607.032
       240.000         201.000
  23450335.345    -7034044.04449  -5465162.98146  23450334.201    23450349.000
       217.000         164.000
  21500081.497    -5973936.83349  -4644185.41547  21500081.194    21500091.343
       238.000         201.000
  20723450.352    -1578449.02649  -1225763.71047  20723449.584    20723458.999
       242.000         209.000
 02  2 13 23 50  0.0000000  0  7G30G24G23G 5G17G 6G10
  20488966.967    -1081203.79649   -838896.27047  20488967.393    20488975.987
       245.000         211.000
  23466135.825     4959961.62349   3849859.63946  23466136.232    23466149.417
       221.000         163.000
  21985199.672    -8598655.99749  -6683541.59747  21985198.784    21985210.865
       231.000         188.000
  21601671.724     3904754.38849   3033863.70547  21601671.414    21601682.009
       240.000         200.000
  23437454.511    -7101732.51349  -5517907.03946  23437453.109    23437468.676
       219.000         163.000
  21489131.088    -6031481.20649  -4689025.11547  21489130.974    21489140.786
       239.000         202.000
  20727075.694    -1559397.53449  -1210918.38947  20727074.915    20727084.424
       243.000         209.000
 02  2 13 23 50 30.0000000  0  7G30G24G23G 5G17G 6G10
  20493564.951    -1057041.29149   -820068.34847  20493565.130    20493573.572
       244.000         211.000
  23480734.616     5036678.21649   3909638.67046  23480735.225    23480749.055
       220.000         163.000
  21969466.059    -8681335.78249  -6747967.23047  21969465.286    21969476.983
       230.000         188.000
  21616815.182     3984333.40349   3095873.25347  21616814.741    21616825.450
       239.000         200.000
  23424609.526    -7169232.50649  -5570504.21546  23424607.931    23424623.347
       218.000         164.000
  21478206.686    -6088889.05849  -4733758.43147  21478206.477    21478216.233
       239.000         202.000
  20730817.409    -1539734.47149  -1195596.51447  20730816.414    20730825.915
       243.000         209.000
 02  2 13 23 51  0.0000000  0  7G30G24G23G 5G17G 6G10
  20498273.129    -1032299.62749   -800789.14047  20498273.491    20498282.111
       245.000         210.000
  23495331.120     5113382.74549   3969408.31345  23495331.011    23495344.264
       220.000         162.000
  21953797.560    -8763673.36549  -6812126.21247  21953796.753    21953808.625
       231.000         189.000
  21632027.005     4064271.83549   3158162.85547  21632026.540    21632037.279
       238.000         199.000
  23411800.612    -7236542.94449  -5622953.70546  23411799.778    23411814.362
       218.000         164.000
  21467308.702    -6146158.14949  -4778383.63047  21467308.512    21467318.629
       240.000         202.000
  20734675.531    -1519459.91549  -1179798.16447  20734674.953    20734684.222
       243.000         209.000
 02  2 13 23 51 30.0000000  0  7G30G24G23G 5G17G 6G10
  20503091.331    -1006979.83149   -781059.43847  20503091.665    20503100.196
       245.000         211.000
  23509925.055     5190073.72449   4029167.40545  23509925.058    23509938.893
       220.000         162.000
  21938194.646    -8845666.62949  -6876016.90247  21938193.784    21938205.699
       233.000         190.000
  21647306.702     4144567.12049   3220730.52447  21647306.482    21647317.417
       238.000         198.000
  23399027.791    -7303663.88649  -5675255.52246  23399026.971    23399041.743
       218.000         165.000
  21456437.385    -6203286.93949  -4822899.49247  21456437.407    21456447.217
       240.000         202.000
  20738649.793    -1498574.99449  -1163524.20247  20738649.182    20738658.440
       244.000         209.000
 02  2 13 23 52  0.0000000  0  7G30G24G23G 5G17G 6G10
  20508019.411     -981082.74149   -760879.89047  20508019.803    20508028.338
       244.000         210.000
  23524516.250     5266750.44549   4088915.37645  23524516.886    23524531.608
       220.000         161.000
  21922657.735    -8927313.23349  -6939637.45147  21922656.860    21922668.950
       234.000         192.000
  21662653.853     4225216.79749   3283574.35047  21662653.547    21662664.510
       238.000         197.000
  23386290.977    -7370595.51749  -5727409.83846  23386289.689    23386304.518
       219.000         165.000
  21445593.003    -6260274.27149  -4867305.12847  21445592.535    21445602.737
       240.000         203.000
  20742740.009    -1477080.83849  -1146775.50647  20742739.220    20742748.640
       243.000         208.000
 02  2 13 23 52 30.0000000  0  7G30G24G23G 5G17G 6G10
  20513057.259     -954608.83749   -740250.88347  20513057.726    20513065.938
       244.000         210.000
  23539104.633     5343412.31749   4148651.79045  23539104.847    23539118.365
       220.000         160.000
  21907187.301    -9008610.36749  -7002985.69147  21907186.610    21907198.223
       234.000         193.000
  21678068.136     4306218.88549   3346692.77347  21678068.006    21678078.465
       237.000         196.000
  23373590.273    -7437337.19649  -5779416.13446  23373589.790    23373604.834
       219.000         165.000
  21434775.913    -6317118.25449  -4911599.06547  21434775.694    21434785.600
       240.000         203.000
  20746946.021    -1454978.05449  -1129552.57047  20746945.518    20746954.781
       243.000         208.000
 02  2 13 23 53  0.0000000  0  8G30G24G23G 5G17G 6G10G15
  20518202.138     -927572.29049   -719183.44447  20518202.434    20518211.091
       245.000         210.000
  23553687.517     5420045.23649   4208365.64545  23553688.161    23553701.531
       220.000         160.000
  21891781.334    -9089568.73949  -7066069.95747  21891780.456    21891791.994
       235.000         193.000
  21693546.518     4387557.97049   3410073.80047  21693546.410    21693556.604
       237.000         195.000
  23360923.210    -7503902.05149  -5831284.65146  23360922.450    23360936.849
       220.000         165.000
  21423983.937    -6373830.14049  -4955790.06247  21423983.735    21423993.446
       240.000         203.000
  20751265.143    -1432280.82049  -1111866.42047  20751264.299    20751273.858
       243.000         208.000
  24712352.663    -1705407.53149   -571104.42445  24712350.396    24712373.247
       211.000         145.000
 02  2 13 23 53 30.0000000  0  8G30G24G23G 5G17G 6G10G15
  20523456.905     -899958.20049   -697665.97947  20523457.286    20523465.758
       245.000         210.000
  23568267.757     5496664.45149   4268068.81545  23568267.308    23568281.941
       220.000         160.000
  21876443.197    -9170170.60549  -7128876.43247  21876442.654    21876453.542
       235.000         194.000
  21709091.459     4469246.97649   3473727.48747  21709091.369    21709101.966
       237.000         195.000
  23348292.857    -7570274.39049  -5883003.16046  23348291.984    23348307.301
       221.000         165.000
  21413220.320    -6430393.08349  -4999865.00147  21413220.136    21413229.884
       240.000         203.000
  20755700.141    -1408974.86749  -1093705.95047  20755699.248    20755708.693
       243.000         208.000
  24696458.052    -1788932.32849   -636188.29945  24696456.299    24696477.525
       210.000         145.000
 02  2 13 23 54  0.0000000  0  8G30G24G23G 5G17G 6G10G15
  20528821.671     -871766.12049   -675698.13447  20528822.102    20528830.401
       244.000         210.000
  23582845.373     5573270.04549   4327761.37945  23582844.956    23582860.796
       218.000         159.000
  21861173.635    -9250412.07249  -7191402.07747  21861172.875    21861184.226
       235.000         193.000
  21724702.854     4551284.96249   3537653.10847  21724702.671    21724713.475
       236.000         195.000
  23335699.380    -7636452.68549  -5934570.46146  23335699.052    23335712.739
       221.000         166.000
  21402485.614    -6486804.03249  -5043821.49447  21402485.198    21402494.935
       240.000         203.000
  20760251.101    -1385059.53549  -1075070.63447  20760250.338    20760259.834
       242.000         208.000
  24680591.642    -1872309.57549   -701157.21245  24680590.293    24680611.082
       210.000         144.000
 02  2 13 23 54 30.0000000  0  8G30G24G23G 5G17G 6G10G15
  20534295.923     -842998.73749   -653282.00147  20534296.432    20534304.947
       245.000         210.000
  23597419.968     5649859.90649   4387441.66345  23597419.966    23597433.972
       217.000         159.000
  21845972.800    -9330292.33649  -7253646.27947  21845971.599    21845983.345
       235.000         192.000
  21740379.874     4633668.09649   3601847.66647  21740380.078    21740390.453
       237.000         194.000
  23323142.594    -7702438.36049  -5985987.67846  23323141.765    23323156.654
       221.000         166.000
  21391779.851    -6543062.92549  -5087659.50747  21391779.549    21391789.291
       240.000         203.000
  20764917.482    -1360537.52349  -1055962.59347  20764916.697    20764926.380
       243.000         208.000
  24664753.078    -1955540.40349   -766012.04145  24664751.238    24664772.475
       210.000         145.000
 02  2 13 23 55  0.0000000  0  8G30G24G23G 5G17G 6G10G15
  20539879.236     -813658.37249   -630419.38847  20539879.707    20539888.074
       245.000         211.000
  23611991.197     5726431.93149   4447108.06145  23611991.948    23612006.344
       217.000         159.000
  21830840.858    -9409810.53149  -7315608.34147  21830839.664    21830850.822
       234.000         192.000
  21756121.862     4716392.41249   3666308.08347  21756121.700    21756132.583
       236.000         194.000
  23310622.100    -7768233.11349  -6037256.14646  23310620.933    23310635.622
       222.000         166.000
  21381103.051    -6599169.59849  -5131378.90347  21381102.621    21381112.490
       240.000         203.000
  20769698.844    -1335411.39949  -1036383.80747  20769698.057    20769707.764
       242.000         208.000
  24648942.109    -2038625.72649   -830753.49745  24648940.484    24648962.410
       208.000         144.000
 02  2 13 23 55 30.0000000  0  8G30G24G23G 5G17G 6G10G15
  20545571.180     -783747.10949   -607111.92347  20545571.447    20545580.198
       244.000         210.000
  23626558.586     5802984.00049   4506758.90945  23626558.534    23626572.092
       217.000         159.000
  21815777.983    -9488965.54049  -7377287.40947  21815777.162    21815788.269
       234.000         191.000
  21771928.066     4799454.11449   3731031.40147  21771927.868    21771938.751
       237.000         194.000
  23298137.812    -7833837.89549  -6088376.59046  23298137.395    23298151.730
       222.000         167.000
  21370455.264    -6655123.61149  -5174979.34147  21370455.132    21370464.750
       239.000         203.000
  20774594.624    -1309683.84049  -1016336.37747  20774593.908    20774603.431
       242.000         208.000
  24633158.735    -2121566.48749   -895382.32445  24633157.310    24633178.092
       209.000         144.000
 02  2 13 23 56  0.0000000  0  8G30G24G23G 5G17G 6G10G15
  20551371.579     -753265.79549   -583360.25847  20551371.801    20551380.568
       245.000         210.000
  23641122.117     5879515.49549   4566393.73845  23641121.792    23641136.372
       219.000         159.000
  21800784.762    -9567754.70449  -7438681.39547  21800783.971    21800795.500
       235.000         191.000
  21787798.104     4882851.28349   3796016.12147  21787797.741    21787808.583
       236.000         194.000
  23285689.753    -7899252.31349  -6139348.68846  23285688.573    23285702.700
       222.000         167.000
  21359836.892    -6710923.25549  -5218459.49347  21359836.603    21359846.206
       240.000         203.000
  20779604.699    -1283355.73249   -995820.98047  20779603.860    20779613.521
       242.000         208.000
  24617403.117    -2204361.73549   -959897.76445  24617402.107    24617422.721
       209.000         144.000
 02  2 13 23 56 30.0000000  0  8G30G24G23G 5G17G 6G10G15
  20557280.065     -722216.47249   -559165.99247  20557280.471    20557289.082
       244.000         210.000
  23655681.448     5956024.61349   4626011.12545  23655681.872    23655695.706
       218.000         159.000
  21785861.401    -9646176.91849  -7499789.45747  21785860.513    21785871.983
       235.000         192.000
  21803731.295     4966580.30749   3861259.42347  21803731.081    21803742.032
       236.000         193.000
  23273277.734    -7964477.37949  -6190173.24546  23273277.046    23273290.843
       222.000         168.000
  21349247.994    -6766567.92849  -5261818.89147  21349247.753    21349257.223
       239.000         203.000
  20784728.664    -1256429.16649   -974839.25847  20784727.882    20784737.595
       242.000         208.000
  24601675.054    -2287012.15149  -1024300.35045  24601672.836    24601694.386
       206.000         143.000
 02  2 13 23 57  0.0000000  0  8G30G24G23G 5G17G 6G10G15
  20563296.507     -690599.95749   -534529.75747  20563296.766    20563305.407
       244.000         210.000
  23670236.408     6032510.98749   4685610.79745  23670236.646    23670251.504
       218.000         159.000
  21771008.344    -9724229.55149  -7560609.52847  21771007.685    21771019.083
       234.000         192.000
  21819727.185     5050639.20749   3926759.77747  21819726.658    21819738.063
       235.000         193.000
  23260901.819    -8029512.64149  -6240849.87046  23260900.863    23260914.753
       223.000         168.000
  21338688.971    -6822055.66949  -5305056.00247  21338688.763    21338698.337
       240.000         203.000
  20789966.397    -1228904.79549   -953391.71347  20789965.706    20789975.224
       242.000         208.000
  24585974.566    -2369517.00049  -1088589.52345  24585972.585    24585993.421
       210.000         142.000
 02  2 13 23 57 30.0000000  0  8G30G24G23G 5G17G 6G10G15
  20569420.587     -658417.62349   -509452.62447  20569420.836    20569429.470
       244.000         210.000
  23684786.799     6108973.23249   4745191.66445  23684786.863    23684801.844
       218.000         159.000
  21756225.986    -9801910.71849  -7621140.15547  21756225.159    21756236.490
       235.000         193.000
  21835785.316     5135024.94049   3992514.79947  21835784.891    21835795.860
       235.000         192.000
  23248561.924    -8094358.64749  -6291379.01246  23248560.207    23248574.587
       223.000         168.000
  21328160.018    -6877385.37749  -5348169.97247  21328159.542    21328169.208
       240.000         203.000
  20795317.550    -1200784.59349   -931479.88247  20795316.822    20795326.185
       243.000         208.000
  24570301.923    -2451876.05349  -1152765.07845  24570299.586    24570320.888
       207.000         142.000
 02  2 13 23 58  0.0000000  0  8G30G24G23G 5G17G 6G10G15
  20575652.295     -625669.88749   -483934.92947  20575652.772    20575661.240
       244.000         210.000
  23699332.675     6185411.70349   4804754.00845  23699333.333    23699346.526
       218.000         158.000
  21741514.962    -9879217.18449  -7681378.81347  21741514.313    21741525.169
       234.000         193.000
  21851905.358     5219736.02349   4058523.34247  21851905.151    21851915.931
       236.000         192.000
  23236258.177    -8159014.32649  -6341759.86246  23236257.414    23236271.383
       223.000         168.000
  21317661.684    -6932554.29349  -5391158.66147  21317661.620    21317670.833
       240.000         204.000
  20800781.979    -1172068.83949   -909103.98847  20800781.469    20800790.647
       242.000         208.000
  24554657.221    -2534088.12849  -1216826.10945  24554655.726    24554676.424
       206.000         143.000
 02  2 13 23 58 30.0000000  0  8G30G24G23G 5G17G 6G10G15
  20581991.242     -592358.64749   -457978.14047  20581991.644    20582000.032
       245.000         210.000
  23713873.694     6261824.67649   4864296.47445  23713873.897    23713887.199
       217.000         157.000
  21726875.524    -9956147.65549  -7741324.48447  21726874.997    21726886.172
       236.000         193.000
  21868086.715     5304769.10549   4124782.79847  21868086.449    21868097.558
       237.000         193.000
  23223990.475    -8223480.71449  -6391993.23946  23223989.067    23224002.890
       223.000         168.000
  21307194.043    -6987561.88949  -5434021.65247  21307193.707    21307203.189
       241.000         204.000
  20806359.317    -1142759.69649   -886265.71347  20806358.598    20806368.126
       243.000         208.000
  24539040.346    -2616154.04649  -1280773.23945  24539039.147    24539059.788
       207.000         143.000
 02  2 13 23 59  0.0000000  0  8G30G24G23G 5G17G 6G10G15
  20588437.025     -558485.84049   -431583.75547  20588437.212    20588445.799
       245.000         210.000
  23728409.600     6338210.69649   4923817.94945  23728409.754    23728424.397
       217.000         156.000
  21712307.907   -10032700.34649  -7800975.78347  21712306.793    21712317.937
       237.000         194.000
  21884328.788     5390121.06049   4191290.73347  21884328.605    21884339.369
       237.000         194.000
  23211758.687    -8287758.42149  -6442079.59846  23211757.744    23211771.745
       224.000         168.000
  21296757.245    -7042407.25449  -5476758.22247  21296756.522    21296766.584
       242.000         204.000
  20812049.169    -1112859.34649   -862966.74947  20812048.419    20812057.938
       244.000         207.000
  24523451.271    -2698073.92649  -1344606.55945  24523450.239    24523470.131
       208.000         143.000
